H1 CPF 2 NER 2021 5 13 9 133 01 glonass132 H2 1401201 9132 39620 2021 5 13 0 0 0 2021 5 16 23 45 0 900 1 1 0 0 0 1 H9 10 0 59347 0.00000 0 19137011.721 -16034596.701 5383080.019 10 0 59347 900.00000 0 19384632.030 -16484470.131 2186931.469 10 0 59347 1800.00000 0 19296482.064 -16696268.071 -1051546.348 10 0 59347 2700.00000 0 18908093.989 -16624952.139 -4269668.375 10 0 59347 3600.00000 0 18264800.261 -16235050.234 -7405121.824 10 0 59347 4500.00000 0 17419686.524 -15502349.772 -10397163.285 10 0 59347 5400.00000 0 16431235.758 -14415134.284 -13187787.865 10 0 59347 6300.00000 0 15360761.785 -12974910.111 -15722848.278 10 0 59347 7200.00000 0 14269739.277 -11196591.124 -17953102.534 10 0 59347 8100.00000 0 13217141.804 -9108131.646 -19835170.240 10 0 59347 9000.00000 0 12256899.330 -6749620.505 -21332379.051 10 0 59347 9900.00000 0 11435581.874 -4171871.613 -22415484.672 10 0 59347 10800.00000 0 10790406.828 -1434567.295 -23063250.112 10 0 59347 11700.00000 0 10347654.221 1395970.599 -23262872.357 10 0 59347 12600.00000 0 10121557.442 4249290.945 -23010247.255 10 0 59347 13500.00000 0 10113717.189 7053502.101 -22310066.450 10 0 59347 14400.00000 0 10313064.610 9738028.303 -21175743.161 10 0 59347 15300.00000 0 10696376.563 12236319.430 -19629166.924 10 0 59347 16200.00000 0 11229322.465 14488401.241 -17700290.724 10 0 59347 17100.00000 0 11867999.547 16443159.376 -15426557.313 10 0 59347 18000.00000 0 12560892.209 18060260.936 -12852175.022 10 0 59347 18900.00000 0 13251172.692 19311632.589 -10027256.587 10 0 59347 19800.00000 0 13879245.216 20182432.584 -7006837.701 10 0 59347 20700.00000 0 14385424.817 20671475.495 -3849794.916 10 0 59347 21600.00000 0 14712635.943 20791091.933 -617684.903 10 0 59347 22500.00000 0 14809014.699 20566429.762 2626470.977 10 0 59347 23400.00000 0 14630302.639 20034227.380 5819431.359 10 0 59347 24300.00000 0 14141928.972 19241112.483 8898982.839 10 0 59347 25200.00000 0 13320691.580 18241500.071 11805165.193 10 0 59347 26100.00000 0 12155964.736 17095180.542 14481448.452 10 0 59347 27000.00000 0 10650381.968 15864701.717 16875837.871 10 0 59347 27900.00000 0 8819965.159 14612656.929 18941884.760 10 0 59347 28800.00000 0 6693694.787 13398994.737 20639583.458 10 0 59347 29700.00000 0 4312539.907 12278464.130 21936137.647 10 0 59347 30600.00000 0 1727989.096 11298302.537 22806582.166 10 0 59347 31500.00000 0 -999855.579 10496263.038 23234249.682 10 0 59347 32400.00000 0 -3804541.806 9899062.136 23211074.823 10 0 59347 33300.00000 0 -6615793.335 9521311.409 22737731.600 10 0 59347 34200.00000 0 -9362194.752 9364975.746 21823603.000 10 0 59347 35100.00000 0 -11973924.227 9419378.814 20486584.728 10 0 59347 36000.00000 0 -14385422.256 9661753.648 18752727.822 10 0 59347 36900.00000 0 -16537887.303 10058313.797 16655727.699 10 0 59347 37800.00000 0 -18381496.753 10565799.041 14236269.666 10 0 59347 38700.00000 0 -19877262.977 11133430.323 11541243.320 10 0 59347 39600.00000 0 -20998449.209 11705191.785 8622840.555 10 0 59347 40500.00000 0 -21731488.088 12222344.373 5537553.867 10 0 59347 41400.00000 0 -22076365.973 12626065.973 2345093.355 10 0 59347 42300.00000 0 -22046457.978 12860107.771 -892757.491 10 0 59347 43200.00000 0 -21667821.217 12873355.706 -4113326.091 10 0 59347 44100.00000 0 -20977975.974 12622189.664 -7254253.188 10 0 59347 45000.00000 0 -20024225.592 12072541.242 -10254690.794 10 0 59347 45900.00000 0 -18861584.988 11201563.104 -13056473.245 10 0 59347 46800.00000 0 -17550403.875 9998838.878 -15605239.249 10 0 59347 47700.00000 0 -16153783.571 8467081.336 -17851483.543 10 0 59347 48600.00000 0 -14734894.928 6622287.661 -19751518.099 10 0 59347 49500.00000 0 -13354309.161 4493342.939 -21268324.339 10 0 59347 50400.00000 0 -12067453.126 2121085.908 -22372279.664 10 0 59347 51300.00000 0 -10922295.560 -443126.692 -23041743.885 10 0 59347 52200.00000 0 -9957361.473 -3139299.929 -23263493.575 10 0 59347 53100.00000 0 -9200158.510 -5901048.559 -23032995.043 10 0 59347 54000.00000 0 -8666082.048 -8658121.315 -22354509.560 10 0 59347 54900.00000 0 -8357845.945 -11339097.933 -21241027.517 10 0 59347 55800.00000 0 -8265463.925 -13874147.322 -19714031.467 10 0 59347 56700.00000 0 -8366783.335 -16197732.229 -17803091.310 10 0 59347 57600.00000 0 -8628549.528 -18251147.330 -15545298.270 10 0 59347 58500.00000 0 -9007956.458 -19984783.981 -12984547.774 10 0 59347 59400.00000 0 -9454617.943 -21360026.101 -10170684.658 10 0 59347 60300.00000 0 -9912875.745 -22350696.792 -7158527.189 10 0 59347 61200.00000 0 -10324345.751 -22943994.273 -4006789.445 10 0 59347 62100.00000 0 -10630592.948 -23140877.385 -776923.926 10 0 59347 63000.00000 0 -10775819.992 -22955884.610 2468091.734 10 0 59347 63900.00000 0 -10709453.512 -22416394.820 5664998.576 10 0 59347 64800.00000 0 -10388516.587 -21561362.187 8751504.671 10 0 59347 65700.00000 0 -9779685.209 -20439580.213 11667512.015 10 0 59347 66600.00000 0 -8860940.380 -19107550.042 14356296.484 10 0 59347 67500.00000 0 -7622745.141 -17627044.919 16765616.837 10 0 59347 68400.00000 0 -6068696.428 -16062475.203 18848730.627 10 0 59347 69300.00000 0 -4215624.383 -14478166.320 20565297.189 10 0 59347 70200.00000 0 -2093135.306 -12935664.976 21882150.723 10 0 59347 71100.00000 0 257382.113 -11491186.908 22773929.543 10 0 59347 72000.00000 0 2784245.029 -10193312.761 23223550.616 10 0 59347 72900.00000 0 5427396.652 -9081027.411 23222521.878 10 0 59347 73800.00000 0 8120678.306 -8182183.052 22771087.943 10 0 59347 74700.00000 0 10794358.933 -7512448.266 21878207.979 10 0 59347 75600.00000 0 13377817.657 -7074784.687 20561367.516 10 0 59347 76500.00000 0 15802269.076 -6859470.905 18846228.823 10 0 59347 77400.00000 0 18003419.485 -6844670.585 16766127.247 10 0 59347 78300.00000 0 19923945.449 -6997519.396 14361423.431 10 0 59347 79200.00000 0 21515693.564 -7275684.026 11678723.748 10 0 59347 80100.00000 0 22741511.639 -7629327.300 8769983.564 10 0 59347 81000.00000 0 23576636.740 -8003396.736 5691509.929 10 0 59347 81900.00000 0 24009583.616 -8340140.592 2502882.046 10 0 59347 82800.00000 0 24042497.355 -8581746.105 -734190.476 10 0 59347 83700.00000 0 23690956.180 -8672989.450 -3957050.482 10 0 59347 84600.00000 0 22983232.742 -8563786.331 -7103295.323 10 0 59347 85500.00000 0 21959044.566 -8211536.109 -10111975.525 10 0 59348 0.00000 0 20667845.423 -7583160.684 -12924767.619 10 0 59348 900.00000 0 19166728.213 -6656751.262 -15487099.292 10 0 59348 1800.00000 0 17518026.424 -5422754.051 -17749204.651 10 0 59348 2700.00000 0 15786713.508 -3884641.115 -19667090.489 10 0 59348 3600.00000 0 14037708.022 -2059038.446 -21203394.217 10 0 59348 4500.00000 0 12333196.859 24698.114 -22328116.868 10 0 59348 5400.00000 0 10730087.985 2325443.419 -23019216.679 10 0 59348 6300.00000 0 9277699.125 4791762.868 -23263051.100 10 0 59348 7200.00000 0 8015779.353 7363813.096 -23054657.806 10 0 59348 8100.00000 0 6972946.813 9975606.520 -22397868.194 10 0 59348 9000.00000 0 6165608.650 12557547.145 -21305249.910 10 0 59348 9900.00000 0 5597409.280 15039132.964 -19797878.175 10 0 59348 10800.00000 0 5259230.848 17351712.876 -17904939.021 10 0 59348 11700.00000 0 5129746.469 19431182.975 -15663170.914 10 0 59348 12600.00000 0 5176503.326 21220508.903 -13116154.730 10 0 59348 13500.00000 0 5357489.816 22671967.842 -10313465.313 10 0 59348 14400.00000 0 5623120.097 23749015.093 -7309701.010 10 0 59348 15300.00000 0 5918551.044 24427695.811 -4163410.562 10 0 59348 16200.00000 0 6186232.108 24697541.793 -935939.134 10 0 59348 17100.00000 0 6368578.198 24561915.204 2309782.744 10 0 59348 18000.00000 0 6410650.289 24037784.873 5510482.005 10 0 59348 18900.00000 0 6262728.094 23154945.321 8603791.693 10 0 59348 19800.00000 0 5882663.839 21954712.644 11529479.418 10 0 59348 20700.00000 0 5237915.953 20488153.829 14230630.116 10 0 59348 21600.00000 0 4307175.466 18813925.920 16654759.021 10 0 59348 22500.00000 0 3081515.738 16995817.742 18754832.604 10 0 59348 23400.00000 0 1565016.895 15100099.130 20490177.529 10 0 59348 24300.00000 0 -225161.148 13192790.067 21827260.497 10 0 59348 25200.00000 0 -2259259.700 11336964.694 22740324.868 10 0 59348 26100.00000 0 -4495935.580 9590202.947 23211873.047 10 0 59348 27000.00000 0 -6883765.772 8002295.491 23232986.925 10 0 59348 27900.00000 0 -9363179.376 6613296.264 22803481.871 10 0 59348 28800.00000 0 -11868736.284 5452001.972 21931892.826 10 0 59348 29700.00000 0 -14331658.163 4534919.610 20635294.194 10 0 59348 30600.00000 0 -16682507.307 3865762.593 18938957.977 10 0 59348 31500.00000 0 -18853903.058 3435494.234 16875857.437 10 0 59348 32400.00000 0 -20783164.349 3222914.585 14486026.104 10 0 59348 33300.00000 0 -22414770.065 3195764.432 11815784.322 10 0 59348 34200.00000 0 -23702536.390 3312299.025 8916847.869 10 0 59348 35100.00000 0 -24611422.001 3523264.893 5845335.139 10 0 59348 36000.00000 0 -25118887.109 3774196.518 2660691.176 10 0 59348 36900.00000 0 -25215750.557 4007936.561 -575451.530 10 0 59348 37800.00000 0 -24906509.696 4167273.968 -3800454.412 10 0 59348 38700.00000 0 -24209109.813 4197589.381 -6951874.485 10 0 59348 39600.00000 0 -23154172.424 4049396.809 -9968663.719 10 0 59348 40500.00000 0 -21783714.073 3680674.593 -12792343.708 10 0 59348 41400.00000 0 -20149408.282 3058887.219 -15368133.457 10 0 59348 42300.00000 0 -18310462.282 2162612.157 -17646008.806 10 0 59348 43200.00000 0 -16331196.113 982702.003 -19581673.306 10 0 59348 44100.00000 0 -14278424.159 -477068.715 -21137421.841 10 0 59348 45000.00000 0 -12218747.551 -2199901.391 -22282880.092 10 0 59348 45900.00000 0 -10215869.815 -4156422.741 -22995605.223 10 0 59348 46800.00000 0 -8328047.340 -6305669.668 -23261535.548 10 0 59348 47700.00000 0 -6605781.073 -8596571.083 -23075279.606 10 0 59348 48600.00000 0 -5089845.990 -10969867.240 -22440237.976 10 0 59348 49500.00000 0 -3809741.091 -13360388.565 -21368554.216 10 0 59348 50400.00000 0 -2782625.386 -15699600.247 -19880894.543 10 0 59348 51300.00000 0 -2012785.011 -17918307.250 -18006059.175 10 0 59348 52200.00000 0 -1491654.315 -19949406.937 -15780431.674 10 0 59348 53100.00000 0 -1198390.360 -21730573.705 -13247276.071 10 0 59348 54000.00000 0 -1100976.536 -23206762.400 -10455894.859 10 0 59348 54900.00000 0 -1157808.276 -24332424.319 -7460664.087 10 0 59348 55800.00000 0 -1319692.923 -25073341.462 -4319964.808 10 0 59348 56700.00000 0 -1532177.746 -25408000.746 -1095032.544 10 0 59348 57600.00000 0 -1738105.723 -25328449.524 2151251.528 10 0 59348 58500.00000 0 -1880288.749 -24840595.943 5355602.434 10 0 59348 59400.00000 0 -1904182.837 -23963941.686 8455580.336 10 0 59348 60300.00000 0 -1760449.849 -22730759.063 11390820.566 10 0 59348 61200.00000 0 -1407295.506 -21184748.331 14104219.156 10 0 59348 62100.00000 0 -812483.332 -19379233.323 16543049.747 10 0 59348 63000.00000 0 45061.512 -17374972.877 18659989.517 10 0 59348 63900.00000 0 1174126.536 -15237681.637 20414034.031 10 0 59348 64800.00000 0 2570611.759 -13035365.401 21771283.804 10 0 59348 65700.00000 0 4217479.939 -10835583.353 22705588.263 10 0 59348 66600.00000 0 6085258.644 -8702751.812 23199035.954 10 0 59348 67500.00000 0 8133072.527 -6695601.491 23242283.128 10 0 59348 68400.00000 0 10310162.188 -4864893.055 22834716.004 10 0 59348 69300.00000 0 12557825.902 -3251484.407 21984445.140 10 0 59348 70200.00000 0 14811703.401 -1884827.944 20708133.418 10 0 59348 71100.00000 0 17004307.070 -781957.819 19030661.960 10 0 59348 72000.00000 0 19067695.951 52993.061 16984641.137 10 0 59348 72900.00000 0 20936182.425 628728.614 14609776.337 10 0 59348 73800.00000 0 22548960.225 966182.520 11952100.617 10 0 59348 74700.00000 0 23852545.679 1097395.530 9063088.650 10 0 59348 75600.00000 0 24802931.808 1063925.294 5998668.386 10 0 59348 76500.00000 0 25367366.611 914856.055 2818148.629 10 0 59348 77400.00000 0 25525682.130 704491.920 -416917.594 10 0 59348 78300.00000 0 25271119.301 489830.547 -3643912.873 10 0 59348 79200.00000 0 24610614.189 327923.171 -6800356.593 10 0 59348 80100.00000 0 23564533.285 273231.742 -9825104.931 10 0 59348 81000.00000 0 22165868.207 375094.181 -12659527.223 10 0 59348 81900.00000 0 20458922.413 675404.561 -15248636.522 10 0 59348 82800.00000 0 18497543.550 1206606.243 -17542152.837 10 0 59348 83700.00000 0 16342973.898 1990083.316 -19495478.777 10 0 59348 84600.00000 0 14061407.231 3035019.383 -21070568.832 10 0 59348 85500.00000 0 11721352.841 4337773.447 -22236675.263 10 0 59349 0.00000 0 9390915.559 5881801.327 -22970955.881 10 0 59349 900.00000 0 7135104.466 7638128.856 -23258931.356 10 0 59349 1800.00000 0 5013281.756 9566358.510 -23094782.277 10 0 59349 2700.00000 0 3076858.841 11616171.624 -22481479.229 10 0 59349 3600.00000 0 1367334.740 13729264.004 -21430742.133 10 0 59349 4500.00000 0 -85239.862 15841636.680 -19962828.200 10 0 59349 5400.00000 0 -1263308.732 17886146.787 -18106151.387 10 0 59349 6300.00000 0 -2162322.023 19795212.490 -15896739.437 10 0 59349 7200.00000 0 -2790692.175 21503558.406 -13377538.158 10 0 59349 8100.00000 0 -3169195.739 22950885.735 -10597575.868 10 0 59349 9000.00000 0 -3329846.660 24084353.866 -7611004.075 10 0 59349 9900.00000 0 -3314289.390 24860767.705 -4476033.526 10 0 59349 10800.00000 0 -3171781.071 25248377.312 -1253787.171 10 0 59349 11700.00000 0 -2956849.867 25228212.796 1992906.349 10 0 59349 12600.00000 0 -2726730.621 24794897.348 5200753.482 10 0 59349 13500.00000 0 -2538688.689 23956903.797 8307244.932 10 0 59349 14400.00000 0 -2447347.508 22736244.033 11251887.141 10 0 59349 15300.00000 0 -2502135.041 21167605.156 13977390.547 10 0 59349 16200.00000 0 -2744958.770 19296969.820 16430790.340 10 0 59349 17100.00000 0 -3208208.681 17179780.177 18564477.319 10 0 59349 18000.00000 0 -3913173.108 14878723.987 20337118.607 10 0 59349 18900.00000 0 -4868934.321 12461236.948 21714450.865 10 0 59349 19800.00000 0 -6071789.989 9996826.618 22669931.547 10 0 59349 20700.00000 0 -7505224.146 7554330.162 23185236.887 10 0 59349 21600.00000 0 -9140428.133 5199219.998 23250598.562 10 0 59349 22500.00000 0 -10937348.963 2991068.615 22864974.189 10 0 59349 23400.00000 0 -12846220.708 981276.611 22036049.923 10 0 59349 24300.00000 0 -14809514.729 -788843.660 20780076.516 10 0 59349 25200.00000 0 -16764227.492 -2289551.552 19121543.014 10 0 59349 26100.00000 0 -18644411.055 -3503669.511 17092695.126 10 0 59349 27000.00000 0 -20383841.530 -4427043.685 14732907.822 10 0 59349 27900.00000 0 -21918715.404 -5068456.945 12087924.157 10 0 59349 28800.00000 0 -23190262.384 -5448999.843 9208974.638 10 0 59349 29700.00000 0 -24147166.996 -5600927.407 6151793.463 10 0 59349 30600.00000 0 -24747698.916 -5566050.650 2975549.749 10 0 59349 31500.00000 0 -24961463.804 -5393730.714 -258286.445 10 0 59349 32400.00000 0 -24770701.966 -5138560.062 -3487122.352 10 0 59349 33300.00000 0 -24171080.592 -4857827.949 -6648443.150 10 0 59349 34200.00000 0 -23171946.030 -4608876.458 -9681012.532 10 0 59349 35100.00000 0 -21796024.803 -4446458.033 -12526050.726 10 0 59349 36000.00000 0 -20078584.643 -4420205.588 -15128367.773 10 0 59349 36900.00000 0 -18066089.230 -4572321.717 -17437430.493 10 0 59349 37800.00000 0 -15814401.176 -4935584.795 -19408342.809 10 0 59349 38700.00000 0 -13386606.567 -5531756.742 -21002720.596 10 0 59349 39600.00000 0 -10850550.239 -6370460.781 -22189443.921 10 0 59349 40500.00000 0 -8276183.077 -7448578.194 -22945271.865 10 0 59349 41400.00000 0 -5732830.618 -8750191.593 -23255307.422 10 0 59349 42300.00000 0 -3286496.032 -10247079.455 -23113302.621 10 0 59349 43200.00000 0 -997309.261 -11899743.683 -22521796.937 10 0 59349 44100.00000 0 1082771.489 -13658929.385 -21492085.033 10 0 59349 45000.00000 0 2911909.814 -15467575.135 -20044013.142 10 0 59349 45900.00000 0 4459910.974 -17263113.399 -18205606.671 10 0 59349 46800.00000 0 5709247.606 -18980025.516 -16012535.035 10 0 59349 47700.00000 0 6655547.895 -20552544.112 -13507423.154 10 0 59349 48600.00000 0 7307525.649 -21917388.999 -10739022.404 10 0 59349 49500.00000 0 7686355.440 -23016420.511 -7761256.948 10 0 59349 50400.00000 0 7824519.773 -23799097.181 -4632164.431 10 0 59349 51300.00000 0 7764178.075 -24224632.684 -1412752.481 10 0 59349 52200.00000 0 7555128.036 -24263759.598 1834205.451 10 0 59349 53100.00000 0 7252447.478 -23900024.326 5045409.773 10 0 59349 54000.00000 0 6913918.769 -23130557.704 8158284.099 10 0 59349 54900.00000 0 6597347.118 -21966288.488 11112208.183 10 0 59349 55800.00000 0 6357888.346 -20431590.930 13849708.849 10 0 59349 56700.00000 0 6245501.039 -18563381.998 16317584.586 10 0 59349 57600.00000 0 6302632.114 -16409707.218 18467941.281 10 0 59349 58500.00000 0 6562234.327 -14027875.784 20259118.781 10 0 59349 59400.00000 0 7046199.500 -11482224.277 21656490.718 10 0 59349 60300.00000 0 7764273.217 -8841603.419 22633123.065 10 0 59349 61200.00000 0 8713495.840 -6176693.442 23170279.881 10 0 59349 62100.00000 0 9878192.437 -3557259.893 23257768.089 10 0 59349 63000.00000 0 11230511.040 -1049463.447 22894116.235 10 0 59349 63900.00000 0 12731485.771 1286665.566 22086585.360 10 0 59349 64800.00000 0 14332579.785 3399484.847 20851013.170 10 0 59349 65700.00000 0 15977643.242 5247638.446 19211495.566 10 0 59349 66600.00000 0 17605204.602 6801519.263 17199912.395 10 0 59349 67500.00000 0 19151000.045 8044237.494 14855306.887 10 0 59349 68400.00000 0 20550636.162 8972057.194 12223130.646 10 0 59349 69300.00000 0 21742275.659 9594284.888 9354368.434 10 0 59349 70200.00000 0 22669234.902 9932616.699 6304558.960 10 0 59349 71100.00000 0 23282385.707 10019972.635 3132729.762 10 0 59349 72000.00000 0 23542261.715 9898867.624 -99734.120 10 0 59349 72900.00000 0 23420781.671 9619388.024 -3330266.739 10 0 59349 73800.00000 0 22902517.621 9236858.537 -6496321.323 10 0 59349 74700.00000 0 21985454.555 8809297.309 -9536571.353 10 0 59349 75600.00000 0 20681208.939 8394765.869 -12392090.183 10 0 59349 76500.00000 0 19014695.730 8048725.012 -15007486.981 10 0 59349 77400.00000 0 17023256.286 7821507.719 -17331977.394 10 0 59349 78300.00000 0 14755281.768 7756015.521 -19320368.559 10 0 59349 79200.00000 0 12268387.513 7885735.705 -20933939.501 10 0 59349 80100.00000 0 9627212.658 8233163.624 -22141199.747 10 0 59349 81000.00000 0 6900934.877 8808697.783 -22918511.172 10 0 59349 81900.00000 0 4160602.128 9610055.858 -23250560.476 10 0 59349 82800.00000 0 1476391.374 10622238.190 -23130672.298 10 0 59349 83700.00000 0 -1085092.486 11818042.461 -22560955.875 10 0 59349 84600.00000 0 -3463365.454 13159110.140 -21552281.157 10 0 59349 85500.00000 0 -5606354.800 14597462.675 -20124083.524 10 0 59350 0.00000 0 -7472335.287 16077464.506 -18303999.582 10 0 59350 900.00000 0 -9031429.809 17538131.544 -16127339.560 10 0 59350 1800.00000 0 -10266611.797 18915688.375 -13636406.363 10 0 59350 2700.00000 0 -11174165.890 20146266.284 -10879672.838 10 0 59350 3600.00000 0 -11763589.088 21168628.016 -7910833.866 10 0 59350 4500.00000 0 -12056935.668 21926802.676 -4787751.743 10 0 59350 5400.00000 0 -12087634.994 22372518.301 -1571316.275 10 0 59350 6300.00000 0 -11898833.266 22467327.650 1675756.996 10 0 59350 7200.00000 0 -11541331.111 22184335.874 4890165.332 10 0 59350 8100.00000 0 -11071206.330 21509455.929 8009268.274 10 0 59350 9000.00000 0 -10547224.654 20442137.881 10972321.983 10 0 59350 9900.00000 0 -10028150.241 18995541.138 13721672.782 10 0 59350 10800.00000 0 -9570071.618 17196142.555 16203885.520 10 0 59350 11700.00000 0 -9223857.624 15082797.553 18370784.143 10 0 59350 12600.00000 0 -9032851.741 12705294.661 20180384.005 10 0 59350 13500.00000 0 -9030902.412 10122465.074 21597698.270 10 0 59350 14400.00000 0 -9240812.103 7399927.195 22595403.671 10 0 59350 15300.00000 0 -9673269.610 4607561.020 23154353.972 10 0 59350 16200.00000 0 -10326309.378 1816817.771 23263932.779 10 0 59350 17100.00000 0 -11185319.302 -902023.697 22922240.510 10 0 59350 18000.00000 0 -12223595.384 -3482540.532 22136113.492 10 0 59350 18900.00000 0 -13403419.001 -5864679.658 20920976.218 10 0 59350 19800.00000 0 -14677610.933 -7996999.342 19300530.690 10 0 59350 20700.00000 0 -15991496.794 -9838547.641 17306289.575 10 0 59350 21600.00000 0 -17285201.685 -11360302.250 14976962.511 10 0 59350 22500.00000 0 -18496178.559 -12546114.272 12357707.340 10 0 59350 23400.00000 0 -19561865.176 -13393118.861 9499260.362 10 0 59350 24300.00000 0 -20422359.352 -13911597.556 6456961.784 10 0 59350 25200.00000 0 -21023001.388 -14124299.596 3289694.314 10 0 59350 26100.00000 0 -21316756.293 -14065251.604 58754.579 10 0 59350 27000.00000 0 -21266296.499 -13778106.093 -3173321.772 10 0 59350 27900.00000 0 -20845697.997 -13314098.198 -6343959.533 10 0 59350 28800.00000 0 -20041678.513 -12729696.222 -9391745.474 10 0 59350 29700.00000 0 -18854325.170 -12084044.317 -12257609.501 10 0 59350 30600.00000 0 -17297279.913 -11436304.327 -14885963.198 10 0 59350 31500.00000 0 -15397373.392 -10843008.120 -17225774.105 10 0 59350 32400.00000 0 -13193720.667 -10355531.551 -19231555.285 10 0 59350 33300.00000 0 -10736314.306 -10017796.276 -20864251.197 10 0 59350 34200.00000 0 -8084171.463 -9864296.509 -22092002.549 10 0 59350 35100.00000 0 -5303109.943 -9918534.419 -22890775.117 10 0 59350 36000.00000 0 -2463243.949 -10191931.201 -23244839.761 10 0 59350 36900.00000 0 363697.826 -10683261.060 -23147093.530 10 0 59350 37800.00000 0 3107121.391 -11378633.725 -22599214.628 10 0 59350 38700.00000 0 5700270.296 -12252028.093 -21611646.972 10 0 59350 39600.00000 0 8082769.807 -13266356.373 -20203413.318 10 0 59350 40500.00000 0 10202906.334 -14375015.536 -18401759.218 10 0 59350 41400.00000 0 12019546.651 -15523861.942 -16241633.451 10 0 59350 42300.00000 0 13503616.135 -16653526.568 -13765014.054 10 0 59350 43200.00000 0 14639073.678 -17701973.271 -11020092.393 10 0 59350 44100.00000 0 15423342.167 -18607191.549 -8060330.909 10 0 59350 45000.00000 0 15867176.411 -19309908.989 -4943413.273 10 0 59350 45900.00000 0 15993974.692 -19756207.249 -1730108.124 10 0 59350 46800.00000 0 15838563.955 -19899929.281 1516930.216 10 0 59350 47700.00000 0 15445511.444 -19704774.259 4734399.063 10 0 59350 48600.00000 0 14867036.032 -19145990.122 7859596.876 10 0 59350 49500.00000 0 14160609.699 -18211591.012 10831658.927 10 0 59350 50400.00000 0 13386352.769 -16903047.522 13592753.390 10 0 59350 51300.00000 0 12604335.056 -15235420.432 16089213.440 10 0 59350 52200.00000 0 11871898.610 -13236932.538 18272582.614 10 0 59350 53100.00000 0 11241116.232 -10947997.211 20100552.873 10 0 59350 54000.00000 0 10756493.476 -8419745.239 21537777.565 10 0 59350 54900.00000 0 10453010.788 -5712112.347 22556544.412 10 0 59350 55800.00000 0 10354587.473 -2891568.034 23137296.694 10 0 59350 56700.00000 0 10473030.836 -28580.635 23268994.133 10 0 59350 57600.00000 0 10807513.161 2805076.057 22949308.119 10 0 59350 58500.00000 0 11344596.850 5539063.272 22184649.072 10 0 59350 59400.00000 0 12058805.207 8107152.279 20990026.851 10 0 59350 60300.00000 0 12913713.691 10449724.627 19388747.955 10 0 59350 61200.00000 0 13863515.096 12515995.785 17411956.134 10 0 59350 62100.00000 0 14854992.640 14265872.134 15098025.606 10 0 59350 63000.00000 0 15829818.345 15671366.521 12491818.528 10 0 59350 63900.00000 0 16727080.759 16717515.595 9643820.762 10 0 59350 64800.00000 0 17485936.704 17402762.745 6609171.961 10 0 59350 65700.00000 0 18048276.650 17738792.279 3446607.902 10 0 59350 66600.00000 0 18361292.632 17749822.899 217334.657 10 0 59350 67500.00000 0 18379841.562 17471390.797 -3016144.585 10 0 59350 68400.00000 0 18068505.068 16948673.596 -6191228.299 10 0 59350 69300.00000 0 17403259.281 16234425.322 -9246418.587 10 0 59350 70200.00000 0 16372683.987 15386608.688 -12122503.827 10 0 59350 71100.00000 0 14978659.328 14465823.537 -14763699.790 10 0 59350 72000.00000 0 13236519.368 13532638.892 -17118727.514 10 0 59350 72900.00000 0 11174654.135 12644940.167 -19141807.460 10 0 59350 73800.00000 0 8833574.471 11855402.697 -20793550.851 10 0 59350 74700.00000 0 6264476.413 11209197.689 -22041730.806 10 0 59350 75600.00000 0 3527362.500 10742027.312 -22861918.113 10 0 59350 76500.00000 0 688795.974 10478572.140 -23237968.771 10 0 59350 77400.00000 0 -2180620.520 10431417.236 -23162353.044 10 0 59350 78300.00000 0 -5008938.450 10600503.299 -22636318.655 10 0 59350 79200.00000 0 -7725618.150 10973127.472 -21669883.716 10 0 59350 80100.00000 0 -10264230.670 11524495.272 -20281658.217 10 0 59350 81000.00000 0 -12564994.292 12218801.835 -18498496.159 10 0 59350 81900.00000 0 -14577039.704 13010798.035 -16354983.827 10 0 59350 82800.00000 0 -16260308.586 13847776.124 -13892773.146 10 0 59350 83700.00000 0 -17587005.602 14671891.266 -11159772.396 10 0 59350 84600.00000 0 -18542542.408 15422720.457 -8209209.744 10 0 59350 85500.00000 0 -19125933.700 16039949.689 -5098588.202 99